TimeEST,TemperatureF,Dew PointF,Humidity,Sea Level PressureIn,VisibilityMPH,Wind Direction,Wind SpeedMPH,Gust SpeedMPH,PrecipitationIn,Events,Conditions,WindDirDegrees,DateUTC
12:53 AM,46.9,34.0,61,30.23,10.0,Calm,Calm,-,N/A,,Clear,0,2013-03-09 05:53:00
1:53 AM,48.9,35.1,59,30.20,10.0,East,3.5,-,N/A,,Clear,90,2013-03-09 06:53:00
2:53 AM,52.0,34.0,50,30.20,10.0,East,4.6,-,N/A,,Clear,90,2013-03-09 07:53:00
3:53 AM,44.1,34.0,68,30.20,10.0,Calm,Calm,-,N/A,,Clear,0,2013-03-09 08:53:00
4:53 AM,41.0,34.0,76,30.20,10.0,Calm,Calm,-,N/A,,Clear,0,2013-03-09 09:53:00
5:53 AM,39.9,33.1,77,30.23,10.0,Calm,Calm,-,N/A,,Clear,0,2013-03-09 10:53:00
6:53 AM,39.0,33.1,79,30.23,10.0,Calm,Calm,-,N/A,,Clear,0,2013-03-09 11:53:00
7:53 AM,45.0,36.0,71,30.25,10.0,Calm,Calm,-,N/A,,Clear,0,2013-03-09 12:53:00
8:53 AM,57.0,42.1,57,30.28,10.0,East,8.1,-,N/A,,Clear,100,2013-03-09 13:53:00
9:53 AM,60.1,37.0,42,30.28,10.0,ESE,11.5,-,N/A,,Clear,110,2013-03-09 14:53:00
10:53 AM,63.0,32.0,31,30.27,10.0,East,9.2,-,N/A,,Clear,100,2013-03-09 15:53:00
11:53 AM,66.0,27.0,23,30.27,10.0,East,8.1,-,N/A,,Clear,90,2013-03-09 16:53:00
12:53 PM,68.0,25.0,20,30.25,10.0,East,9.2,-,N/A,,Clear,80,2013-03-09 17:53:00
1:53 PM,68.0,25.0,20,30.21,10.0,ESE,4.6,-,N/A,,Clear,120,2013-03-09 18:53:00
2:53 PM,72.0,25.0,17,30.20,10.0,Variable,3.5,-,N/A,,Clear,0,2013-03-09 19:53:00
3:53 PM,72.0,23.0,16,30.19,10.0,East,8.1,-,N/A,,Partly Cloudy,90,2013-03-09 20:53:00
4:53 PM,72.0,23.0,16,30.19,10.0,ESE,5.8,-,N/A,,Clear,110,2013-03-09 21:53:00
5:53 PM,69.1,26.1,20,30.18,10.0,East,6.9,-,N/A,,Clear,90,2013-03-09 22:53:00
6:53 PM,64.9,30.0,27,30.19,10.0,Calm,Calm,-,N/A,,Clear,0,2013-03-09 23:53:00
7:53 PM,60.1,33.1,36,30.18,10.0,Calm,Calm,-,N/A,,Clear,0,2013-03-10 00:53:00
8:53 PM,54.0,34.0,47,30.19,10.0,Calm,Calm,-,N/A,,Clear,0,2013-03-10 01:53:00
9:53 PM,51.1,35.1,54,30.19,10.0,Calm,Calm,-,N/A,,Clear,0,2013-03-10 02:53:00
10:53 PM,50.0,36.0,59,30.18,10.0,Calm,Calm,-,N/A,,Clear,0,2013-03-10 03:53:00
11:53 PM,57.0,39.9,53,30.18,10.0,ESE,10.4,-,N/A,,Clear,110,2013-03-10 04:53:00